CW0005 Weather Reports


Display with metric or nautical units.
time (UTC)temp
F
wind
direction
speed
MPH
gust
MPH
rain 1hr
in
rain 24hr
in
rain mn
in
humidity
%
barometer
mb
20260505053018 52 13 1.0 7.0 0.00 0.00 0.00 54 1008.5
20260505051512 53 97 0.0 8.0 0.00 0.00 0.00 52 1008.0
20260505041504 55 258 2.0 9.0 0.00 0.00 0.00 44 1007.7
20260505040010 56 254 3.0 11.0 0.00 0.00 0.00 43 1007.9
20260505034509 56 257 1.0 5.0 0.00 0.00 0.00 41 1007.8
20260505031508 57 348 0.0 10.0 0.00 0.00 0.00 39 1007.4
20260505030009 57 313 2.0 13.0 0.00 0.00 0.00 39 1007.5
20260505024506 58 5 4.0 14.0 0.00 0.00 0.00 38 1007.0
20260505023007 58 338 3.0 15.0 0.00 0.00 0.00 39 1006.4
20260505021508 59 340 2.0 13.0 0.00 0.00 0.00 37 1006.7
20260505020011 60 182 1.0 15.0 0.00 0.00 0.00 36 1006.2
20260505014511 62 77 3.0 14.0 0.00 0.00 0.00 35 1005.9
20260505013011 64 43 2.0 14.0 0.00 0.00 0.00 33 1005.2
20260505011511 65 201 2.0 14.0 0.00 0.00 0.00 32 1004.6
20260505004510 67 18 2.0 6.0 0.00 0.00 0.00 29 1004.0
20260505003010 69 289 2.0 13.0 0.00 0.00 0.00 29 1003.6
20260505001508 70 336 5.0 14.0 0.00 0.00 0.00 28 1003.3
20260505000011 72 3 3.0 11.0 0.00 0.00 0.00 27 1002.9
20260504234513 73 251 2.0 17.0 0.00 0.00 0.00 28 1002.9
20260504233012 74 13 3.0 14.0 0.00 0.00 0.00 27 1002.7
20260504231512 75 18 2.0 11.0 0.00 0.00 0.00 27 1002.5
20260504230016 76 58 3.0 14.0 0.00 0.00 0.00 26 1002.4
20260504224513 77 13 2.0 16.0 0.00 0.00 0.00 26 1002.0
20260504223006 78 13 4.0 10.0 0.00 0.00 0.00 25 1001.6
20260504221506 79 13 5.0 15.0 0.00 0.00 0.00 25 1001.4
20260504220012 80 13 2.0 11.0 0.00 0.00 0.00 27 1001.1
20260504214503 81 13 4.0 13.0 0.00 0.00 0.00 26 1000.7
20260504213024 81 13 4.0 10.0 0.00 0.00 0.00 28 1000.5
20260504211515 80 278 1.0 15.0 0.00 0.00 0.00 31 1000.5
20260504210005 81 33 1.0 11.0 0.00 0.00 0.00 30 1000.3
20260504203008 86 234 2.0 9.0 0.00 0.00 0.00 24 1000.3
20260504201508 86 220 0.0 10.0 0.00 0.00 0.00 24 1000.3
20260504200015 85 13 0.0 9.0 0.00 0.00 0.00 23 1000.5
20260504194520 85 218 1.0 8.0 0.00 0.00 0.00 25 1000.6
20260504191504 83 161 2.0 8.0 0.00 0.00 0.00 27 1000.7
20260504190010 84 218 1.0 8.0 0.00 0.00 0.00 27 1000.9
20260504184514 84 206 2.0 8.0 0.00 0.00 0.00 29 1000.8
20260504183020 83 244 1.0 10.0 0.00 0.00 0.00 31 1000.7
20260504181508 83 257 1.0 12.0 0.00 0.00 0.00 29 1000.9
20260504180009 83 201 2.0 6.0 0.00 0.00 0.00 28 1000.8
20260504174512 82 321 2.0 6.0 0.00 0.00 0.00 29 1000.8
20260504173022 81 251 2.0 9.0 0.00 0.00 0.00 30 1000.9
20260504171518 80 53 1.0 8.0 0.00 0.00 0.00 32 1000.9
20260504081517 48 13 0.0 0.0 0.00 0.00 0.00 70 1004.6